Weather History for Jefferson, NC

Change the Weather History Date:

Tuesday, January 9, 2001

  Actual Average Record
Temperature  
Mean Temperature 19 °F -  
Max Temperature 21 °F 42 °F 60 °F (1975)
Min Temperature 17 °F 20 °F -8 °F (1970)
Degree Days  
Heating Degree Days 46    
Moisture  
Dew Point 9 °F    
Average Humidity 65    
Maximum Humidity 86    
Minimum Humidity 49    
Precipitation  
Precipitation 0.00 in - - ()
Sea Level Pressure  
Sea Level Pressure 29.90 in    
Wind  
Wind Speed 17 mph (NW)    
Max Wind Speed 32 mph    
Max Gust Speed 53 mph    
Visibility 10 miles    
Events Snow    
Averages and records for this station are not official NWS values.
T = Trace of Precipitation, MM = Missing Value Source: NWS Daily Summary

Daily Weather History Graph

Daily Weather History Graph

Search for Another Location

Airport:

Trip Planner

Search our weather history database for the weather conditions in past years. The results will help you decide how hot, cold, wet, or windy it might be!

Date:

Astronomy

Jan. 09, 2001 Rise Set
Actual Time 7:37 AM EST 5:28 PM EST
Civil Twilight 7:09 AM EST 5:56 PM EST
Nautical Twilight 6:37 AM EST 6:28 PM EST
Astronomical Twilight 6:06 AM EST 6:59 PM EST
Moon 5:29 PM EST (1/9) 7:23 AM EST (1/9)
Length of Visible Light 10h 47m
Length of Day
9h 50m
Full, 100% of the Moon is Illuminated
Jan 9
Full
Jan 9
Full
Jan 16
Last Quarter
Jan 24
New
Feb 1
First Quarter

Hourly Weather History & Observations

Time (EST) Temp. Windchill Dew Point Humidity Pressure Visibility Wind Dir Wind Speed Gust Speed Precip Events Conditions
12:17 AM 21.2 °F 6.8 °F 17.6 °F 86% 29.80 in 10.0 mi NW 17.3 mph 23.0 mph N/A   Overcast
12:37 AM 21.2 °F 8.3 °F 15.8 °F 80% 29.80 in 10.0 mi NW 13.8 mph 25.3 mph N/A   Overcast
12:57 AM 21.2 °F 7.3 °F 14.0 °F 74% 29.79 in 10.0 mi NW 16.1 mph 21.9 mph N/A   Overcast
1:17 AM 21.2 °F 10.9 °F 14.0 °F 74% 29.80 in 10.0 mi NW 9.2 mph 26.5 mph N/A   Overcast
1:37 AM 21.2 °F 7.8 °F 14.0 °F 74% 29.80 in 10.0 mi NW 15.0 mph 31.1 mph N/A   Overcast
1:57 AM 21.2 °F 7.3 °F 14.0 °F 74% 29.80 in 10.0 mi NW 16.1 mph 25.3 mph N/A   Overcast
2:17 AM 21.2 °F 4.9 °F 14.0 °F 74% 29.79 in 10.0 mi NW 23.0 mph 33.4 mph N/A   Overcast
2:37 AM 21.2 °F 6.8 °F 14.0 °F 74% 29.80 in 10.0 mi WNW 17.3 mph 29.9 mph N/A   Overcast
2:57 AM 19.4 °F 6.6 °F 14.0 °F 80% 29.81 in 10.0 mi NW 12.7 mph 24.2 mph N/A   Overcast
3:17 AM 19.4 °F 5.0 °F 12.2 °F 74% 29.81 in 10.0 mi NW 16.1 mph 27.6 mph N/A   Overcast
3:37 AM 19.4 °F 6.0 °F 10.4 °F 68% 29.82 in 10.0 mi WNW 13.8 mph 32.2 mph N/A   Mostly Cloudy
3:57 AM 19.4 °F 3.6 °F 10.4 °F 68% 29.81 in 10.0 mi NW 19.6 mph 27.6 mph 0.00 in Snow Light Snow
4:17 AM 19.4 °F 4.1 °F 10.4 °F 68% 29.82 in 10.0 mi NW 18.4 mph 27.6 mph 0.00 in Snow Light Snow
4:37 AM 19.4 °F 6.6 °F 12.2 °F 74% 29.82 in 10.0 mi NW 12.7 mph 27.6 mph 0.00 in Snow Light Snow
4:57 AM 19.4 °F 4.5 °F 12.2 °F 74% 29.81 in 10.0 mi NW 17.3 mph 25.3 mph 0.00 in Snow Light Snow
5:17 AM 19.4 °F 5.5 °F 12.2 °F 74% 29.82 in 10.0 mi NW 15.0 mph 24.2 mph 0.00 in Snow Light Snow
5:37 AM 19.4 °F 6.0 °F 12.2 °F 74% 29.82 in 10.0 mi NW 13.8 mph 21.9 mph 0.00 in Snow Light Snow
5:57 AM 19.4 °F 7.9 °F 12.2 °F 74% 29.82 in 7.0 mi NW 10.4 mph 17.3 mph 0.00 in Snow Light Snow
6:17 AM 19.4 °F 7.2 °F 12.2 °F 74% 29.83 in 10.0 mi NW 11.5 mph 20.7 mph 0.00 in Snow Light Snow
6:37 AM 19.4 °F 6.0 °F 10.4 °F 68% 29.83 in 10.0 mi NW 13.8 mph 27.6 mph N/A   Scattered Clouds
6:57 AM 19.4 °F 4.1 °F 10.4 °F 68% 29.84 in 10.0 mi NW 18.4 mph 33.4 mph N/A   Scattered Clouds
7:17 AM 19.4 °F 7.9 °F 10.4 °F 68% 29.86 in 10.0 mi NW 10.4 mph 20.7 mph N/A   Scattered Clouds
7:37 AM 19.4 °F 7.2 °F 10.4 °F 68% 29.86 in 10.0 mi NW 11.5 mph 24.2 mph N/A   Scattered Clouds
7:57 AM 17.6 °F 5.7 °F 8.6 °F 68% 29.88 in 10.0 mi WNW 10.4 mph 21.9 mph N/A   Scattered Clouds
8:17 AM 17.6 °F 5.0 °F 8.6 °F 68% 29.88 in 10.0 mi NW 11.5 mph 20.7 mph N/A   Scattered Clouds
8:37 AM 17.6 °F 3.2 °F 8.6 °F 68% 29.89 in 10.0 mi NW 15.0 mph 29.9 mph 0.00 in Snow Light Snow
8:57 AM 17.6 °F 1.3 °F 8.6 °F 68% 29.89 in 10.0 mi NW 19.6 mph 31.1 mph N/A   Clear
9:17 AM 17.6 °F 0.9 °F 8.6 °F 68% 29.90 in 10.0 mi NW 20.7 mph 34.5 mph N/A   Clear
9:37 AM 19.4 °F 2.8 °F 8.6 °F 63% 29.91 in 10.0 mi NW 21.9 mph 31.1 mph N/A   Clear
9:57 AM 19.4 °F 2.1 °F 10.4 °F 68% 29.92 in 10.0 mi NW 24.2 mph 33.4 mph N/A   Clear
10:17 AM 19.4 °F 5.0 °F 10.4 °F 68% 29.94 in 10.0 mi NW 16.1 mph 33.4 mph N/A   Clear
10:37 AM 19.4 °F 5.0 °F 10.4 °F 68% 29.95 in 7.0 mi NW 16.1 mph 32.2 mph 0.00 in Snow Light Snow
10:57 AM 19.4 °F 4.1 °F 8.6 °F 63% 29.94 in 10.0 mi NW 18.4 mph 28.8 mph N/A   Scattered Clouds
11:17 AM 19.4 °F 2.8 °F 8.6 °F 63% 29.95 in 10.0 mi NW 21.9 mph 31.1 mph N/A   Clear
11:37 AM 19.4 °F 3.6 °F 8.6 °F 63% 29.95 in 10.0 mi NW 19.6 mph 34.5 mph N/A   Clear
11:57 AM 19.4 °F 2.8 °F 8.6 °F 63% 29.94 in 10.0 mi NW 21.9 mph 32.2 mph N/A   Clear
12:17 PM 19.4 °F 4.1 °F 8.6 °F 63% 29.94 in 10.0 mi NW 18.4 mph 33.4 mph N/A   Clear
12:37 PM 19.4 °F 4.5 °F 8.6 °F 63% 29.94 in 10.0 mi WNW 17.3 mph 27.6 mph N/A   Clear
12:57 PM 19.4 °F 6.6 °F 8.6 °F 63% 29.94 in 10.0 mi WNW 12.7 mph 27.6 mph N/A   Clear
1:17 PM 19.4 °F 6.6 °F 6.8 °F 58% 29.94 in 10.0 mi NW 12.7 mph 32.2 mph N/A   Clear
1:37 PM 19.4 °F 0.8 °F 6.8 °F 58% 29.91 in 10.0 mi NW 28.8 mph 52.9 mph N/A   Clear
1:57 PM 19.4 °F -0.0 °F 6.8 °F 58% 29.91 in 10.0 mi NW 32.2 mph 41.4 mph N/A   Clear
2:17 PM 19.4 °F 3.6 °F 5.0 °F 54% 29.95 in 10.0 mi NW 19.6 mph 36.8 mph N/A   Clear
2:37 PM 19.4 °F 1.8 °F 5.0 °F 54% 29.94 in 10.0 mi NW 25.3 mph 32.2 mph N/A   Clear
2:57 PM 19.4 °F 2.5 °F 5.0 °F 54% 29.95 in 10.0 mi NW 23.0 mph 39.1 mph N/A   Clear
3:17 PM 19.4 °F 2.8 °F 5.0 °F 54% 29.96 in 10.0 mi NW 21.9 mph 34.5 mph N/A   Clear
3:37 PM 19.4 °F 5.0 °F 5.0 °F 54% 29.97 in 10.0 mi NNW 16.1 mph 31.1 mph N/A   Clear
3:57 PM 19.4 °F 3.6 °F 3.2 °F 49% 29.98 in 10.0 mi NNW 19.6 mph 38.0 mph N/A   Clear
4:17 PM 19.4 °F 2.5 °F 5.0 °F 54% 29.98 in 10.0 mi NW 23.0 mph 36.8 mph N/A   Clear
4:37 PM 19.4 °F 3.2 °F 5.0 °F 54% 29.99 in 10.0 mi NW 20.7 mph 34.5 mph N/A   Clear
4:57 PM 19.4 °F 5.5 °F 5.0 °F 54% 30.00 in 10.0 mi NW 15.0 mph 32.2 mph N/A   Clear
5:17 PM 19.4 °F 3.2 °F 5.0 °F 54% 30.02 in 10.0 mi WNW 20.7 mph 29.9 mph N/A   Clear
5:37 PM 19.4 °F 6.0 °F 5.0 °F 54% 30.03 in 10.0 mi WNW 13.8 mph 24.2 mph N/A   Clear
5:57 PM 19.4 °F 3.6 °F 5.0 °F 54% 30.02 in 10.0 mi NW 19.6 mph 36.8 mph N/A   Clear
6:17 PM 19.4 °F 2.8 °F 5.0 °F 54% 30.01 in 10.0 mi NW 21.9 mph 39.1 mph N/A   Clear
6:37 PM 19.4 °F 2.8 °F 6.8 °F 58% 30.02 in 10.0 mi NW 21.9 mph 34.5 mph N/A   Clear
6:57 PM 19.4 °F 2.8 °F 5.0 °F 54% 30.03 in 10.0 mi NW 21.9 mph 36.8 mph N/A   Clear
7:17 PM 19.4 °F 2.8 °F 5.0 °F 54% 30.04 in 10.0 mi NW 21.9 mph 34.5 mph N/A   Clear
7:37 PM 19.4 °F 1.8 °F 6.8 °F 58% 30.04 in 10.0 mi NW 25.3 mph 36.8 mph N/A   Clear
7:57 PM 19.4 °F 5.0 °F 6.8 °F 58% 30.05 in 10.0 mi NW 16.1 mph 38.0 mph N/A   Clear
8:17 PM 17.6 °F 1.7 °F 5.0 °F 58% 30.05 in 10.0 mi NW 18.4 mph 32.2 mph N/A   Clear
8:37 PM 19.4 °F 3.6 °F 5.0 °F 54% 30.05 in 10.0 mi NW 19.6 mph 32.2 mph N/A   Clear
8:57 PM 19.4 °F 4.1 °F 5.0 °F 54% 30.05 in 10.0 mi NW 18.4 mph 35.7 mph N/A   Clear
9:17 PM 19.4 °F 2.8 °F 5.0 °F 54% 30.05 in 10.0 mi NW 21.9 mph 33.4 mph N/A   Clear
9:37 PM 19.4 °F 3.6 °F 5.0 °F 54% 30.04 in 10.0 mi NW 19.6 mph 34.5 mph N/A   Clear
9:57 PM 19.4 °F 5.0 °F 5.0 °F 54% 30.06 in 10.0 mi NW 16.1 mph 33.4 mph N/A   Clear
10:17 PM 19.4 °F 4.5 °F 5.0 °F 54% 30.07 in 10.0 mi WNW 17.3 mph 35.7 mph N/A   Clear
10:37 PM 19.4 °F 0.5 °F 3.2 °F 49% 30.05 in 10.0 mi NW 29.9 mph 40.3 mph N/A   Clear
10:57 PM 21.2 °F 4.5 °F 1.4 °F 42% 30.04 in 10.0 mi WNW 24.2 mph 34.5 mph N/A   Clear
11:17 PM 19.4 °F 2.1 °F 1.4 °F 46% 30.05 in 10.0 mi NW 24.2 mph 34.5 mph N/A   Clear
11:37 PM 19.4 °F 5.0 °F 1.4 °F 46% 30.07 in 10.0 mi NW 16.1 mph 29.9 mph N/A   Clear
11:57 PM 21.2 °F 6.8 °F -0.4 °F 39% 30.07 in 10.0 mi WNW 17.3 mph 26.5 mph N/A   Clear